Location: Bijele Vode
(45.2833°N, 16.2000°E)
Time: 10:07:34
(UTC+00:00)

CZ-2C R/B - Pass Details

Date: 26 January 2021
Orbit: 390 x 584 km, 35.0° (Epoch: 27 February)

Event Time Altitude Azimuth Distance (km) Brightness Sun altitude
Exits shadow 04:10:41 20° 186° (S) 1,311 3.2 -23.1°
Maximum altitude 04:10:48 20° 184° (S) 1,310 3.2 -23.0°
Drops below altitude 10° 04:13:52 10° 136° (SE) 1,796 4.6 -22.5°
Sets 04:16:30 0° 119° (ESE) 2,649 5.9 -22.0°
